Regional Weather Roundup
Issued by NWS

Home | Current Version | Previous Version | Graphics & Text | Print | Product List | Glossary Off
Versions: 1 2 3 4 5 6 7 8 9 10 11 12 13 14 15 16 17 18 19 20 21 22 23 24 25 26 27 28 29 30 31 32 33 34 35 36 37 38 39 40 41 42 43 44 45 46 47 48 49 50

000
ASUS43 KBIS 300710
RWRND

NORTH DAKOTA REGIONAL WEATHER ROUNDUP
NATIONAL WEATHER SERVICE BISMARCK ND
200 AM CDT SAT MAY 30 2015

NOTE: "FAIR" INDICATES FEW OR NO CLOUDS BELOW 12,000 FEET WITH NO
SIGNIFICANT WEATHER AND/OR OBSTRUCTIONS TO VISIBILITY.


NDZ001>003-009>011-017-300800-
NORTHWEST NORTH DAKOTA

CITY           SKY/WX    TMP DP  RH WIND       PRES   REMARKS
WILLISTON      PTCLDY    46  33  60 CALM      30.30R
MINOT          CLEAR     39  31  72 E12       30.34R
MINOT AFB      CLEAR     40  39  97 E9        30.34R
$$

NDZ018>021-031>035-040>046-300800-
SOUTHWEST NORTH DAKOTA

CITY           SKY/WX    TMP DP  RH WIND       PRES   REMARKS
BISMARCK       CLEAR     41  34  76 NE8       30.32R
DICKINSON      CLEAR     37  30  75 SE8       30.27F
GARRISON         N/A     43  34  70 E13       30.31R
HETTINGER ARPT CLEAR     37  33  85 CALM      30.30S
$$

NDZ004>008-012>016-024-026-027-054-300800-
NORTHEAST NORTH DAKOTA

CITY           SKY/WX    TMP DP  RH WIND       PRES   REMARKS
GRAND FORKS    CLEAR     36  28  73 N10       30.34S
GRND FRKS AFB  CLEAR     35  27  72 N13       30.35
DEVILS LAKE    CLEAR     37  25  60 NE10      30.34S
$$

NDZ022-023-025-028>030-036>039-047>053-300800-
SOUTHEAST NORTH DAKOTA

CITY           SKY/WX    TMP DP  RH WIND       PRES   REMARKS
FARGO          CLEAR     41  30  65 N20G28    30.30R
JAMESTOWN      CLEAR     40  31  70 NE15      30.31R
$$



USA.gov is the U.S. government's official web portal to all federal, state and local government web resources and services.